Lid_Strength_Index
8 9 8 8 9 10 9 8 9 8 8 6 5 5 5 4 5 5 5 4 4 4 3 3 3 2 2 2 1 1 1 1 1 0 0 0 0 0 -0 -0 -0 -0 -0 -1
9 9 9 9 8 8 9 9 9 8 8 5 5 5 5 5 5 5 5 4 4 3 3 3 3 2 2 2 1 1 1 1 1 0 0 0 0 0 0 0 -0 -0 0 0
10 9 9 10 8 8 7 7 7 8 6 6 5 5 5 5 5 5 4 4 4 4 3 3 2 2 2 2 1 1 1 1 1 1 1 1 0 0 0 0 0 -0 0 0
10 10 12 8 6 7 7 6 7 7 6 6 5 4 4 4 4 4 4 4 4 3 3 2 2 2 1 1 1 2 2 1 1 1 1 1 1 1 1 0 0 0 0 0
11 11 10 8 7 8 8 7 6 7 6 6 6 5 5 4 4 3 3 3 3 3 2 2 2 1 2 2 2 2 2 2 1 1 1 1 1 1 0 1 1 0 0 0
10 12 13 8 7 6 6 9 6 6 6 6 6 7 5 5 4 3 3 3 3 2 2 2 2 1 2 2 2 2 2 1 1 1 1 1 1 1 0 0 1 1 0 -0
10 11 9 7 6 6 10 9 6 6 6 6 7 6 5 4 4 3 3 2 2 2 2 2 1 1 2 2 2 1 1 1 1 1 1 0 0 0 0 0 0 1 1 0
11 12 12 6 6 9 7 5 6 5 5 5 5 5 5 5 4 4 4 3 2 3 2 2 1 1 2 2 1 1 1 1 1 1 1 1 1 1 0 1 1 1 1 2
9 9 7 6 6 5 5 6 5 5 5 5 5 5 5 5 4 4 3 3 2 3 2 2 1 1 2 1 1 1 1 1 1 1 0 0 1 1 1 1 1 2 2 2
9 8 7 6 5 4 4 5 4 4 4 4 5 4 5 4 4 4 3 3 3 3 3 3 2 2 2 1 1 1 2 1 1 1 1 1 1 1 1 1 2 2 2 2
9 7 6 6 5 4 4 4 4 4 4 4 4 4 4 4 4 4 3 3 3 3 3 3 2 2 2 1 1 2 2 2 2 2 2 3 5 3 1 3 2 1 2 3
9 6 6 6 4 4 4 4 4 4 4 4 3 4 4 4 3 3 3 3 3 3 2 2 2 2 2 1 1 2 2 2 2 3 2 3 4 6 11 12 13 13 12 7
6 5 5 5 4 4 4 4 4 4 4 4 3 3 3 4 3 4 3 3 3 3 3 3 2 2 1 1 1 2 2 3 6 4 3 3 2 3 7 9 13 14 14 12
4 4 6 5 5 4 4 3 4 3 3 3 3 3 3 3 3 3 3 3 2 2 2 2 3 2 1 1 1 2 2 6 2 3 2 3 3 4 4 4 6 7 10 9
6 6 6 4 3 4 3 3 4 4 4 4 3 3 3 3 3 3 3 2 2 2 2 2 3 3 2 1 1 1 2 1 1 2 2 4 4 4 4 4 5 5 5 7
6 6 6 7 4 4 4 4 4 4 4 4 3 3 3 3 3 3 2 2 3 4 3 2 2 1 1 1 1 1 1 4 4 2 3 3 4 4 5 5 3 3 3 3
7 7 6 7 7 6 5 3 4 4 4 4 4 3 3 3 3 3 3 2 2 2 2 2 2 1 1 1 1 1 1 1 3 2 3 4 4 5 4 3 3 3 3 4
6 6 5 5 6 6 4 3 3 3 4 3 3 3 3 3 4 3 3 2 2 2 2 1 1 1 1 1 1 1 1 2 2 3 3 4 4 3 3 3 3 4 5 6
5 6 5 5 4 3 3 3 3 3 3 3 3 4 3 3 3 3 2 3 3 3 2 1 3 2 1 1 1 1 2 2 3 3 2 4 3 3 3 3 4 5 5 6
4 4 5 4 3 3 3 2 3 3 3 3 3 3 4 3 3 3 3 3 3 2 3 3 2 1 2 3 2 2 3 3 3 3 3 2 2 3 3 6 4 5 5 6
4 5 4 3 3 3 3 2 3 3 3 3 3 3 3 3 3 3 3 4 3 4 3 5 2 2 3 4 3 3 3 3 3 3 3 3 3 3 4 4 4 4 4 5
4 4 3 3 3 3 2 2 3 3 3 3 3 3 3 3 3 3 2 3 4 8 5 4 3 5 3 4 3 3 3 3 3 3 3 3 3 3 3 3 3 4 4 4
4 4 3 3 3 3 3 3 3 3 3 3 3 3 3 3 3 4 4 2 3 6 3 3 6 6 5 2 2 2 3 3 2 2 3 2 2 2 2 3 3 4 4 5
4 4 3 3 3 3 4 3 3 2 2 2 2 2 2 3 3 2 2 6 8 6 4 6 6 6 5 3 2 2 2 2 2 2 2 5 2 2 3 4 4 4 5 7
3 3 3 3 4 4 3 3 3 2 3 2 2 2 2 1 2 2 4 4 7 6 5 7 6 6 2 1 1 1 1 2 2 2 2 2 3 3 4 4 5 5 6 7
4 4 3 3 3 3 3 3 3 3 3 3 3 2 2 1 3 4 4 5 3 5 3 4 4 2 1 1 1 1 1 2 3 2 3 3 3 4 4 5 5 6 7 7
3 6 3 3 3 3 3 3 3 3 3 3 3 2 2 2 2 4 5 4 3 2 2 2 3 4 2 2 1 2 2 2 4 3 3 3 3 4 5 5 6 6 6 7